Wind_Speed
11 11 11 12 12 12 13 14 15 15 15 15 15 16 17 17 17 17 17 18 19 19 20 21 22 23 24 24 24 24 24 25 25 25 25 26 27 28 29 30 29 28
10 11 11 12 12 13 14 15 15 15 15 15 15 15 16 16 16 17 18 19 20 21 22 22 23 24 25 25 25 25 25 25 26 26 26 27 28 29 29 31 29 25
10 11 12 12 13 14 15 15 15 15 14 15 15 16 17 17 18 19 20 21 22 23 24 24 24 25 25 25 26 26 26 26 26 26 27 27 28 29 29 30 28 24
9 11 12 13 13 14 15 15 15 15 15 16 16 17 18 19 20 21 22 23 24 25 25 26 26 26 26 26 27 27 26 27 27 26 27 28 29 30 29 29 28 25
10 11 12 13 14 15 16 16 17 17 18 18 19 20 20 21 22 23 24 25 25 26 27 28 28 28 28 28 28 28 27 28 28 28 29 29 30 31 31 30 28 26
11 12 13 14 15 16 17 18 19 19 20 21 22 22 23 23 23 24 25 26 26 27 29 30 31 30 30 30 29 29 29 29 30 30 31 31 31 32 32 32 31 29
12 13 14 15 16 18 19 19 20 21 22 22 23 23 24 24 24 25 26 27 28 29 30 32 32 32 32 32 32 31 31 32 32 33 33 33 33 33 34 34 33 32
13 14 15 16 17 18 19 20 21 21 22 23 23 24 25 26 27 27 28 29 30 30 31 32 33 34 34 35 35 35 35 35 36 36 36 36 35 35 36 36 35 35
14 15 15 16 17 18 19 20 21 22 23 24 25 26 27 28 28 29 30 30 31 31 31 32 33 34 35 36 37 37 38 38 39 40 39 39 37 37 37 37 37 36
14 15 16 17 18 19 20 21 23 24 24 25 26 27 28 29 30 30 31 31 32 32 32 32 33 34 35 36 37 38 39 39 40 40 41 40 39 36 35 36 37 36
15 16 17 18 19 20 22 22 23 24 25 26 27 28 29 29 30 31 31 31 32 32 32 33 33 34 34 35 36 37 38 38 39 39 39 40 39 37 34 34 35 36
16 18 19 20 21 22 23 23 24 25 26 27 28 28 29 29 30 30 30 31 31 32 32 33 33 33 33 34 35 36 36 37 37 37 37 38 39 38 36 33 34 35
17 18 20 21 22 23 24 25 25 26 27 27 27 28 28 28 28 29 29 30 31 31 32 33 33 34 34 34 35 36 36 37 37 37 36 36 36 37 37 35 34 34
18 19 20 21 22 23 24 25 25 25 25 25 25 25 26 26 27 27 28 29 30 31 32 33 34 35 36 36 36 36 37 37 38 38 37 36 35 36 36 35 34 34
18 19 20 21 22 22 23 23 22 22 22 23 23 24 24 25 26 26 27 28 29 30 31 32 33 34 36 37 37 37 38 38 39 40 40 39 38 37 36 36 35 34
18 19 19 20 20 20 20 20 20 20 21 21 22 23 23 23 24 24 25 25 26 27 28 29 30 31 33 34 35 36 37 37 38 39 41 41 41 39 38 37 36 34
17 18 17 17 17 17 17 18 18 19 19 20 20 20 21 21 21 22 23 24 24 25 26 27 28 29 30 32 33 34 35 36 37 38 39 41 42 42 41 40 38 36
15 15 14 14 15 15 16 16 17 17 17 18 18 18 19 20 21 22 22 23 24 25 26 27 28 29 30 31 32 33 34 36 37 37 38 39 41 42 42 42 41 39
12 12 12 13 14 14 14 14 14 15 15 16 17 18 19 20 22 23 24 25 27 28 29 30 30 31 31 32 33 33 34 35 36 37 38 39 40 41 42 43 43 42
10 10 11 11 11 11 12 12 13 13 15 16 18 19 21 23 24 26 27 29 30 31 32 33 33 34 34 34 35 35 35 35 35 36 37 38 40 41 42 43 44 43
7 8 8 9 9 10 11 12 13 15 17 18 20 22 24 25 27 29 30 31 33 34 35 35 36 36 37 37 37 38 38 37 37 37 36 37 38 39 41 42 43 44
4 4 5 7 9 10 12 13 15 17 19 21 23 24 26 27 28 30 32 33 34 35 36 37 37 38 39 39 39 39 39 39 39 39 38 37 37 37 38 40 41 43
3 5 6 8 10 11 13 14 17 19 20 22 23 25 26 28 30 31 33 34 35 36 37 38 39 39 40 40 41 41 41 41 41 40 40 40 39 38 38 37 38 40
6 8 9 10 11 12 13 15 17 19 20 22 23 25 27 29 31 32 33 34 35 37 38 38 39 40 40 41 41 42 42 42 42 41 41 41 40 39 38 37 35 36
8 9 9 10 11 12 14 15 17 18 20 22 24 25 27 29 30 31 33 34 36 37 38 38 39 40 41 42 42 42 42 42 42 42 41 41 41 40 39 38 37 35
8 8 9 9 10 12 14 15 17 18 20 21 23 25 26 28 29 31 33 34 35 36 37 38 39 40 40 41 42 42 42 41 41 42 41 40 40 40 40 39 38 36
Wind_Direction
294 298 297 293 290 289 290 291 293 292 290 288 287 286 287 288 291 293 296 299 302 304 307 312 314 314 313 312 310 309 308 308 308 309 310 311 311 312 314 312 303 292
300 300 296 293 292 293 293 293 292 291 289 289 287 287 288 289 290 292 294 296 299 300 304 308 309 309 309 308 307 305 304 304 305 306 307 308 309 310 312 315 309 295
299 297 295 295 295 297 296 294 293 291 290 290 289 290 290 291 292 293 294 295 296 298 300 302 303 302 303 303 303 303 302 301 302 303 305 306 307 309 310 314 313 301
294 294 295 298 299 299 298 296 294 292 291 290 290 291 291 293 294 294 295 296 296 297 298 298 298 298 299 299 299 300 300 300 301 302 304 305 306 307 308 310 312 306
294 295 296 299 299 299 298 297 296 295 294 294 293 293 293 294 295 295 296 297 297 298 297 297 297 296 296 296 296 297 296 297 298 299 301 302 303 305 305 306 307 305
296 296 296 298 298 299 299 298 298 297 296 296 295 295 295 295 296 296 296 297 298 299 298 298 297 295 295 295 294 294 294 294 294 295 297 298 299 301 302 302 302 301
293 294 296 298 298 298 298 297 297 296 296 296 295 296 296 296 297 297 297 298 298 299 299 298 297 296 295 295 294 294 293 293 293 294 295 296 297 297 297 297 297 297
291 292 293 294 294 295 295 295 296 295 295 296 295 296 296 297 298 298 298 299 299 299 298 297 297 296 296 296 295 295 295 295 295 295 295 295 295 294 293 293 292 293
289 290 290 291 292 292 293 293 294 294 295 295 296 296 297 298 298 298 298 299 299 298 298 297 296 295 295 296 296 296 297 297 297 297 296 295 294 292 291 289 288 287
287 287 289 290 291 292 292 293 294 295 296 297 298 299 299 300 300 300 300 299 299 298 297 296 295 294 294 294 294 295 295 295 296 296 297 296 295 293 291 288 286 283
287 289 291 292 293 293 294 296 298 299 300 301 301 301 301 301 301 300 300 299 299 298 297 297 296 295 294 294 293 294 294 295 295 296 296 297 297 296 293 289 286 283
290 293 295 296 297 299 300 302 303 304 304 304 304 304 303 303 303 302 302 302 302 302 301 300 300 299 298 297 297 296 296 296 296 296 296 296 297 297 296 292 288 284
293 296 299 301 303 305 306 307 308 308 308 307 308 308 308 308 308 308 308 307 307 307 306 306 305 304 303 302 301 300 299 298 297 296 295 294 294 295 295 294 290 286
298 301 304 306 308 309 310 311 311 311 311 312 312 312 312 313 312 313 312 312 311 311 311 310 309 308 307 305 304 303 301 300 298 296 295 294 292 292 293 293 291 288
304 307 309 310 311 312 313 313 314 315 315 315 316 316 316 316 316 316 316 316 316 315 315 314 313 312 311 309 308 306 304 303 301 299 298 296 295 293 292 292 290 287
309 311 312 313 314 315 316 317 317 318 318 319 320 320 321 321 321 322 322 322 322 322 322 322 321 320 319 317 315 314 311 309 306 304 301 299 297 295 293 292 291 288
310 312 313 314 316 317 318 318 319 321 323 325 326 327 329 330 332 332 333 333 333 332 332 331 330 329 327 326 324 322 319 316 313 310 306 303 300 298 295 292 290 289
309 312 314 316 317 318 319 322 326 329 332 334 336 339 342 344 345 344 344 344 343 343 342 341 339 338 335 333 331 328 326 323 320 317 313 309 305 302 299 295 292 290
308 312 316 318 320 323 327 333 338 340 344 347 351 354 356 356 355 354 353 352 350 350 348 347 345 342 339 337 335 332 330 327 325 322 319 315 311 307 304 301 296 293
312 317 320 323 327 334 343 350 353 356 360 3 4 5 4 3 2 360 358 357 355 353 351 349 347 344 342 340 337 335 333 330 327 325 322 318 315 311 308 305 301 297
322 326 330 336 345 356 5 8 10 12 13 12 12 11 9 7 5 3 1 359 357 355 352 350 348 346 344 342 339 337 335 332 330 327 324 320 317 314 310 307 304 300
343 353 1 9 15 20 21 20 20 20 18 16 15 13 11 9 7 5 3 1 358 356 353 351 349 347 345 342 340 338 336 334 331 329 326 323 319 315 312 309 305 302
51 47 41 38 35 31 28 25 24 22 19 18 16 14 11 10 8 6 4 1 359 356 354 352 350 348 345 343 341 340 337 335 333 331 328 325 323 319 315 311 307 303
74 63 54 47 40 33 28 25 23 21 19 17 15 13 11 10 9 7 4 1 359 357 355 353 351 349 347 345 343 341 339 337 335 333 331 328 325 322 319 315 311 305
75 65 55 46 36 30 26 23 20 19 17 15 14 11 10 10 8 6 3 1 360 357 355 354 352 350 349 347 345 343 341 339 336 334 332 329 327 324 322 319 316 311
72 60 48 37 28 25 23 19 16 16 15 13 11 9 9 8 6 4 3 2 0 358 356 354 353 351 350 349 347 345 343 341 338 335 333 332 330 328 325 323 320 316
Height
3148 3148 3147 3147 3146 3146 3145 3144 3144 3143 3142 3141 3140 3139 3138 3138 3137 3136 3135 3133 3132 3131 3129 3128 3127 3126 3124 3123 3121 3120 3118 3117 3115 3114 3112 3110 3108 3106 3104 3102 3100 3099
3146 3146 3145 3145 3145 3144 3143 3143 3142 3142 3141 3140 3139 3138 3137 3137 3136 3134 3133 3132 3130 3129 3128 3127 3125 3123 3122 3120 3119 3117 3116 3114 3113 3111 3109 3108 3106 3104 3102 3100 3097 3096
3144 3144 3143 3143 3143 3142 3142 3141 3141 3140 3139 3139 3138 3137 3136 3135 3134 3132 3131 3130 3128 3127 3125 3124 3123 3121 3119 3118 3116 3115 3113 3111 3110 3109 3107 3105 3103 3101 3100 3098 3095 3094
3143 3142 3142 3141 3141 3141 3140 3140 3139 3138 3138 3137 3136 3135 3134 3133 3132 3130 3129 3127 3126 3125 3123 3121 3120 3118 3117 3115 3113 3112 3110 3109 3107 3106 3104 3103 3101 3099 3097 3095 3093 3092
3141 3141 3140 3140 3139 3139 3139 3138 3137 3136 3136 3135 3134 3133 3132 3130 3129 3128 3126 3125 3123 3122 3120 3118 3117 3115 3114 3112 3111 3109 3108 3106 3104 3103 3101 3100 3098 3096 3094 3093 3091 3090
3139 3139 3139 3138 3138 3137 3137 3136 3135 3134 3134 3133 3131 3130 3129 3128 3126 3125 3123 3122 3120 3119 3117 3115 3114 3112 3111 3110 3108 3107 3105 3104 3102 3100 3098 3097 3096 3094 3091 3090 3088 3087
3137 3137 3137 3137 3136 3135 3135 3134 3133 3132 3131 3130 3129 3128 3126 3125 3124 3122 3121 3119 3117 3116 3114 3112 3111 3109 3108 3106 3105 3103 3102 3100 3099 3097 3095 3094 3092 3091 3089 3087 3085 3084
3136 3136 3136 3135 3135 3134 3133 3132 3131 3130 3129 3128 3127 3125 3124 3122 3121 3119 3117 3116 3114 3113 3111 3109 3107 3106 3104 3102 3101 3099 3098 3096 3094 3093 3091 3090 3088 3087 3085 3083 3081 3080
3134 3134 3134 3133 3132 3132 3131 3130 3129 3128 3126 3125 3124 3122 3121 3119 3117 3116 3114 3112 3111 3109 3107 3106 3104 3102 3100 3098 3097 3095 3093 3091 3090 3088 3086 3085 3084 3082 3081 3079 3077 3076
3132 3132 3131 3131 3130 3129 3128 3127 3126 3125 3123 3122 3121 3119 3117 3116 3114 3112 3111 3109 3107 3105 3104 3102 3100 3098 3097 3095 3093 3091 3089 3087 3085 3083 3081 3079 3078 3077 3076 3074 3072 3072
3129 3129 3128 3128 3127 3126 3125 3124 3123 3122 3120 3119 3117 3116 3114 3112 3110 3109 3107 3105 3103 3101 3100 3098 3096 3094 3093 3091 3089 3086 3085 3083 3081 3079 3076 3074 3072 3071 3070 3069 3067 3066
3127 3126 3126 3125 3124 3123 3122 3121 3120 3119 3117 3116 3114 3112 3110 3109 3107 3105 3103 3101 3099 3097 3095 3093 3092 3090 3088 3086 3084 3082 3080 3078 3076 3075 3073 3070 3068 3065 3064 3063 3062 3061
3124 3124 3123 3122 3121 3120 3120 3118 3117 3116 3114 3112 3111 3109 3107 3105 3103 3101 3099 3097 3095 3093 3091 3089 3087 3085 3084 3082 3080 3078 3076 3074 3072 3070 3069 3067 3064 3062 3059 3058 3057 3056
3122 3121 3120 3120 3119 3118 3117 3115 3114 3113 3111 3109 3108 3106 3104 3102 3100 3098 3096 3094 3092 3090 3087 3085 3083 3080 3079 3077 3075 3073 3071 3069 3067 3065 3063 3062 3061 3058 3056 3053 3052 3051
3119 3119 3118 3117 3116 3115 3114 3113 3111 3110 3109 3107 3105 3103 3102 3100 3098 3096 3094 3091 3089 3087 3084 3082 3079 3077 3074 3072 3070 3068 3066 3064 3062 3059 3057 3056 3055 3053 3052 3049 3048 3046
3117 3117 3116 3115 3114 3113 3112 3111 3110 3108 3107 3105 3103 3101 3099 3097 3095 3093 3091 3089 3087 3084 3082 3079 3077 3074 3071 3068 3066 3063 3061 3059 3057 3055 3052 3050 3048 3047 3046 3045 3043 3041
3116 3115 3114 3114 3113 3112 3111 3109 3108 3106 3105 3103 3101 3099 3097 3095 3093 3091 3089 3087 3084 3082 3080 3077 3075 3072 3069 3066 3063 3060 3057 3055 3053 3050 3048 3045 3042 3041 3039 3038 3037 3036
3114 3114 3113 3112 3112 3111 3109 3108 3106 3105 3103 3101 3100 3098 3096 3093 3091 3089 3087 3085 3082 3080 3078 3075 3072 3069 3067 3064 3061 3058 3054 3051 3049 3046 3043 3040 3037 3035 3033 3031 3030 3030
3113 3113 3112 3111 3110 3109 3108 3107 3105 3104 3102 3100 3098 3096 3094 3092 3090 3087 3085 3083 3080 3078 3075 3072 3070 3067 3064 3061 3058 3055 3052 3049 3045 3042 3039 3036 3033 3030 3027 3025 3023 3022
3113 3112 3111 3110 3109 3108 3107 3106 3104 3103 3101 3099 3097 3095 3093 3091 3088 3086 3083 3081 3078 3075 3072 3070 3067 3064 3061 3058 3055 3052 3049 3046 3043 3039 3036 3033 3029 3026 3023 3020 3017 3015
3112 3111 3110 3109 3108 3107 3106 3105 3103 3102 3100 3098 3096 3094 3092 3089 3087 3085 3082 3079 3076 3073 3070 3067 3064 3061 3058 3055 3052 3049 3046 3043 3039 3036 3033 3030 3027 3023 3019 3016 3012 3010
3112 3111 3110 3109 3108 3107 3106 3104 3103 3101 3099 3097 3095 3093 3091 3089 3086 3084 3081 3078 3075 3072 3069 3065 3062 3058 3055 3052 3049 3045 3042 3039 3036 3032 3029 3027 3023 3020 3016 3012 3008 3005
3111 3111 3110 3109 3108 3107 3105 3104 3102 3101 3099 3097 3095 3093 3090 3088 3085 3082 3079 3077 3074 3070 3067 3063 3059 3056 3052 3048 3045 3042 3038 3035 3032 3028 3025 3022 3019 3016 3012 3009 3005 3001
3111 3110 3110 3109 3108 3107 3105 3104 3102 3100 3098 3096 3094 3092 3089 3087 3084 3081 3078 3075 3072 3069 3065 3061 3058 3054 3050 3046 3042 3038 3034 3031 3027 3024 3021 3018 3015 3012 3009 3005 3002 2999
3111 3110 3110 3109 3108 3107 3105 3103 3102 3100 3098 3096 3093 3091 3088 3086 3083 3081 3078 3074 3071 3067 3064 3060 3056 3052 3048 3044 3040 3036 3032 3028 3024 3021 3018 3014 3011 3008 3005 3001 2998 2995
3111 3110 3110 3109 3108 3106 3105 3103 3101 3099 3097 3095 3093 3091 3088 3086 3083 3080 3077 3073 3070 3066 3063 3059 3055 3051 3047 3043 3038 3034 3030 3026 3021 3018 3015 3011 3007 3003 3000 2997 2994 2991